Temperature
17 17 17 17 17 17 18 20 21 20 20 19 19 19 19 17 17 15 13 12 12 13 13 13 13 13 13 13 13 13 13 13 13 13 13 13 13 14 14 14 14 14 14 14 14 14 14 14 14
16 16 17 17 17 17 19 20 20 19 19 18 18 18 18 16 14 13 12 12 12 12 12 13 12 12 12 12 13 13 13 13 13 13 13 13 13 13 13 14 14 14 14 14 14 14 14 14 14
16 16 17 17 17 18 19 19 18 18 18 18 17 17 17 15 13 13 12 12 12 12 12 12 12 12 12 12 12 13 13 13 13 13 13 13 13 13 13 13 13 13 13 14 14 14 14 14 14
16 16 17 17 17 18 19 19 18 18 18 17 17 16 14 13 13 12 12 12 12 12 12 12 12 12 12 12 12 12 12 12 12 12 12 13 13 13 13 13 13 13 13 13 13 13 13 14 14
15 16 16 16 17 18 18 19 18 18 18 17 17 16 13 12 13 12 12 12 11 11 11 12 12 12 12 12 12 12 12 12 12 12 12 12 12 13 13 13 13 13 13 13 13 13 13 13 13
16 17 16 16 17 18 18 18 18 18 17 17 16 15 13 12 12 12 12 11 11 11 11 11 11 11 11 11 11 11 12 12 12 12 12 12 12 12 13 12 13 13 12 12 12 13 13 13 13
16 15 16 17 17 18 18 18 17 17 16 16 16 15 12 12 12 12 11 11 11 10 10 11 11 11 11 11 11 11 11 11 12 12 12 12 12 12 12 12 12 12 12 12 12 12 12 12 12
15 15 16 17 17 17 17 17 16 16 15 15 15 14 12 11 11 11 10 10 10 10 10 10 10 10 11 11 11 11 11 11 11 11 11 12 12 12 12 12 12 12 12 12 12 12 12 12 12
15 14 15 16 16 16 16 16 15 15 14 14 13 12 12 11 11 10 10 10 9 9 10 10 10 10 10 10 10 10 11 11 11 11 11 11 11 11 11 11 11 12 12 12 12 12 12 12 12
15 13 14 15 16 15 16 15 15 14 14 13 12 11 11 11 10 10 10 9 9 9 9 9 10 10 10 10 10 10 10 10 10 10 10 11 11 11 11 11 11 11 11 11 11 11 11 11 11
14 13 14 15 15 14 14 14 14 14 13 12 12 11 10 10 10 9 9 9 9 9 9 9 9 9 10 10 10 10 10 10 10 10 10 10 10 10 10 10 10 10 10 11 11 11 11 11 11
13 13 14 14 13 13 13 13 13 12 12 12 11 11 10 10 10 9 9 9 9 8 8 8 9 9 9 9 9 9 9 9 9 10 10 10 10 10 10 10 10 10 10 10 10 10 10 10 10
12 12 13 12 12 12 12 12 12 11 11 11 11 10 10 10 9 9 9 9 8 8 8 8 8 9 9 9 9 9 9 9 9 9 9 9 9 9 10 10 10 9 9 9 10 10 10 10 10
12 12 12 12 12 12 11 11 11 11 11 10 10 9 9 9 9 9 8 8 8 8 8 8 8 8 8 8 8 8 8 9 9 9 9 9 9 9 9 9 9 9 9 9 9 9 9 9 9
12 11 11 11 12 11 10 10 10 11 10 10 10 9 9 8 8 8 8 8 8 7 7 7 8 8 8 8 8 8 8 8 8 8 9 9 8 8 8 8 9 8 8 9 9 9 9 9 9
11 11 10 11 11 11 10 10 10 11 10 10 9 9 8 8 7 7 7 7 7 7 7 7 7 7 7 7 7 8 8 8 8 8 8 8 8 8 8 8 8 8 8 8 8 8 8 8 8
10 10 10 10 11 10 9 9 9 10 10 10 9 8 8 7 7 7 7 7 7 6 6 7 7 7 7 7 7 7 7 7 7 7 8 8 8 8 8 8 8 8 8 8 8 8 7 7 7
9 10 11 10 10 10 9 9 9 9 9 9 8 8 7 6 6 6 6 6 6 6 6 6 6 6 6 7 6 6 6 7 7 7 7 7 7 7 7 7 7 7 7 7 7 7 7 7 7
10 10 10 10 10 9 8 9 8 8 8 7 7 7 6 6 5 5 5 6 6 6 5 6 6 6 6 6 6 6 6 6 6 6 6 6 6 6 7 7 7 7 7 7 7 7 6 6 6
9 9 9 9 9 8 8 8 8 7 6 6 6 5 5 5 4 4 4 5 5 5 5 5 5 5 5 5 5 5 6 5 6 6 6 6 6 6 6 6 6 6 6 6 6 6 6 6 6
8 8 8 8 7 8 7 7 7 6 6 6 5 5 5 4 4 4 4 4 4 4 4 4 5 5 5 5 5 5 5 5 5 5 5 5 5 5 5 5 5 6 6 6 6 5 5 5 5
7 8 7 7 6 6 7 6 6 6 5 5 5 4 4 4 4 3 3 3 4 4 4 4 4 4 4 4 4 4 4 4 5 5 5 5 5 5 5 5 5 5 5 5 5 5 5 5 5
6 7 6 6 6 5 6 5 5 6 5 4 4 4 4 3 3 3 3 3 3 3 3 3 3 3 4 3 3 4 4 4 4 4 4 4 4 4 4 4 4 4 4 5 5 4 4 4 4
6 6 6 6 5 4 5 5 5 4 4 4 4 3 3 3 3 3 2 3 3 3 3 3 3 3 3 3 3 3 3 3 3 3 3 3 3 3 4 4 4 4 4 4 4 4 4 4 4
5 4 4 4 4 4 5 5 4 4 4 3 3 3 3 2 2 2 2 2 2 2 2 2 2 3 3 3 3 3 2 2 3 3 3 3 3 3 3 3 3 3 3 3 3 3 3 3 3
4 5 4 4 5 5 4 4 3 3 3 3 3 3 2 2 1 1 1 1 1 1 2 2 2 2 2 2 2 2 2 2 2 2 2 2 2 2 2 2 3 3 3 3 3 3 3 3 3
4 4 4 4 3 3 4 4 3 2 2 2 2 1 1 0 0 1 1 1 1 1 1 1 1 1 1 1 2 1 1 1 1 1 1 1 2 2 2 2 2 2 2 2 2 2 2 2 2
3 3 3 3 3 4 5 4 3 1 1 1 1 0 0 -0 -0 -0 -0 -0 -0 -0 0 0 1 1 1 1 1 1 1 1 1 1 1 1 1 1 1 1 1 1 1 1 1 1 1 1 1
2 2 2 2 3 3 3 3 2 2 1 0 -0 0 -0 -1 -1 -1 -1 -1 -1 -1 -0 -0 -0 0 0 0 0 0 0 0 0 0 0 0 0 0 0 0 0 1 1 1 1 1 1 1 1
1 1 1 1 2 2 2 2 1 0 -0 -0 -0 -0 -1 -1 -2 -2 -2 -2 -1 -1 -1 -1 -1 -1 -0 -0 -0 -0 -0 -0 -0 -0 -0 -0 -0 -0 -0 -0 -0 -0 -0 -0 -0 -0 -0 -0 -0
Wind_Speed
10 10 6 2 3 5 6 3 1 1 2 4 6 4 4 5 4 5 4 5 7 8 9 8 9 10 10 11 11 11 11 11 11 11 11 12 12 12 13 13 13 13 14 14 15 15 16 16 15
8 6 4 3 4 6 4 4 2 2 3 4 4 3 3 5 7 7 4 5 7 8 9 8 9 10 10 10 10 11 11 11 11 11 11 11 12 12 12 13 13 14 14 14 15 15 15 15 14
8 5 3 3 5 6 2 2 4 5 5 3 2 2 3 5 6 5 5 5 6 7 8 9 9 9 10 10 10 10 10 10 10 10 10 11 11 12 12 12 13 13 13 14 14 14 15 14 13
3 3 3 5 8 5 3 2 4 3 3 2 1 2 4 6 4 5 6 5 6 7 8 9 9 9 9 9 9 9 9 9 9 10 10 10 11 11 11 12 12 13 13 13 13 13 13 13 13
3 3 5 7 8 5 2 1 2 1 2 2 2 1 4 4 7 7 5 5 6 6 8 8 9 9 9 9 8 8 8 9 9 9 9 9 10 11 11 11 12 12 12 12 12 12 12 12 11
3 3 5 8 7 5 3 1 1 2 1 1 1 1 4 5 6 5 4 5 5 6 7 8 8 8 8 8 8 8 8 8 8 9 8 9 9 10 10 10 11 11 11 11 11 11 11 10 10
3 4 7 8 6 5 3 2 2 2 2 1 0 1 5 5 4 4 4 4 6 6 6 7 7 7 8 8 8 8 8 8 8 8 8 8 9 9 9 9 10 10 10 10 11 11 10 9 9
3 3 7 8 7 5 1 1 1 2 1 2 3 0 3 4 4 4 4 5 5 6 6 5 6 6 7 7 8 8 8 8 8 8 8 8 9 9 9 9 9 9 9 10 10 10 10 9 9
4 4 7 6 5 2 1 1 1 2 1 2 3 4 5 8 6 5 4 3 4 4 4 5 5 5 6 7 8 8 8 8 8 7 8 8 8 8 8 9 9 9 9 9 9 9 9 8 8
3 6 8 4 3 2 0 1 1 2 2 1 2 5 8 7 6 6 5 5 4 3 3 4 4 4 5 6 7 7 6 7 6 6 6 5 6 7 7 8 8 8 8 8 7 7 6 6 6
4 7 5 3 3 3 3 2 1 3 3 2 3 5 6 6 6 5 5 4 4 4 3 3 3 4 4 4 5 5 5 5 5 5 5 5 6 6 6 6 6 6 6 5 5 4 4 5 5
6 6 4 4 2 3 3 3 2 3 1 2 3 5 7 6 6 5 5 4 4 4 3 3 3 3 4 4 4 4 4 4 4 4 4 4 4 4 4 4 4 3 4 4 4 3 4 5 5
8 7 4 3 2 2 3 5 3 4 1 1 3 4 6 6 5 5 4 4 4 4 4 3 3 3 3 3 3 4 4 3 4 4 4 4 4 3 3 3 3 3 4 3 2 3 4 4 4
3 4 5 5 5 3 4 6 4 4 3 2 3 4 4 5 5 4 4 3 4 4 4 3 3 3 3 3 3 3 4 4 4 4 4 4 4 3 2 2 2 2 3 2 2 2 3 3 3
4 5 6 7 5 3 2 6 7 5 4 4 4 4 4 4 3 3 4 4 4 5 4 4 4 4 3 3 3 3 3 4 3 3 4 4 4 3 3 2 2 3 3 2 2 3 3 3 3
5 6 6 5 5 5 5 8 5 5 6 6 5 4 4 3 3 2 2 3 3 5 4 4 4 4 4 3 3 3 3 4 3 3 3 3 3 3 3 2 2 2 2 2 2 1 1 1 1
6 7 7 5 6 4 7 7 3 4 5 5 4 4 4 3 2 2 2 2 3 4 5 5 4 4 4 4 4 4 4 4 3 3 3 3 3 3 3 2 2 2 2 1 1 1 1 1 1
5 6 7 6 5 5 7 6 3 3 4 3 2 2 2 2 2 2 2 2 2 4 5 5 5 4 4 4 3 3 3 3 3 3 2 3 3 2 2 2 2 3 1 1 1 2 1 1 1
5 6 8 5 1 5 8 8 5 3 1 1 1 1 2 2 2 3 3 2 3 3 4 5 5 4 4 3 3 3 2 1 1 2 2 2 2 2 2 2 2 2 1 1 1 2 2 1 1
7 8 7 3 1 3 6 7 3 3 3 2 1 1 0 2 2 3 3 3 2 2 2 3 4 5 4 3 2 2 2 1 1 2 2 2 2 1 1 1 1 1 1 2 2 2 1 1 1
7 7 6 4 3 4 3 5 4 3 2 2 1 1 1 1 2 2 2 2 2 2 1 1 3 4 3 3 2 2 2 1 1 1 1 1 2 2 1 1 1 1 2 2 2 2 2 1 1
6 3 5 4 3 4 5 5 4 4 3 2 2 0 0 0 1 2 2 2 2 2 2 1 1 3 3 3 3 4 3 2 2 2 1 1 2 2 2 1 1 1 1 2 2 2 1 2 2
3 3 4 5 5 5 5 5 4 4 3 4 2 1 0 0 1 1 2 2 2 2 2 2 2 1 2 2 3 3 2 2 1 2 2 2 1 1 2 1 1 1 1 2 1 1 2 2 2
2 2 3 3 2 5 7 6 4 3 4 2 2 1 1 1 1 2 2 3 2 2 2 2 1 1 1 1 2 3 3 2 2 2 2 2 1 1 1 2 1 1 1 1 1 2 2 2 2
1 1 1 1 3 6 4 4 4 1 3 3 1 1 1 1 1 1 2 2 2 2 2 1 1 1 1 0 1 2 3 3 3 3 3 2 2 2 3 2 2 1 1 2 2 2 3 3 3
3 2 3 3 3 3 1 4 2 3 4 4 3 2 3 3 2 2 2 1 1 1 1 1 0 1 1 1 1 1 2 2 2 2 2 3 3 3 2 2 2 2 2 2 2 2 3 3 3
2 2 2 1 3 3 4 3 1 3 3 3 3 4 3 3 2 2 2 2 1 1 0 0 0 0 1 1 1 2 1 2 2 2 2 2 2 2 2 2 2 3 2 3 3 3 3 3 3
2 1 0 2 3 5 4 4 3 2 1 1 2 2 2 2 2 3 3 2 2 2 1 0 0 0 1 1 1 2 2 2 2 2 2 2 2 2 2 2 2 3 2 3 3 3 3 3 3
1 2 2 3 3 3 4 3 1 3 2 1 1 1 2 2 2 2 2 2 2 2 2 2 2 1 1 1 1 1 1 2 2 2 2 2 2 2 2 3 3 3 3 3 3 4 4 4 4
1 1 2 3 4 4 4 3 2 4 3 2 2 2 2 2 2 3 3 3 3 2 2 2 2 2 2 2 1 1 1 1 2 2 2 2 2 2 3 3 3 4 3 3 3 4 4 4 5
Wind_Direction
293 272 253 252 244 235 239 239 288 59 52 29 24 9 18 26 28 107 134 82 93 106 113 116 106 102 102 98 94 90 85 81 80 82 81 78 76 76 75 74 73 72 74 73 71 70 70 69 69
286 272 258 244 244 241 230 207 203 49 73 58 34 7 30 69 74 101 108 90 101 109 117 117 109 106 104 100 97 94 89 85 82 83 84 81 78 77 76 75 75 74 74 72 71 71 68 68 68
274 257 253 239 240 249 252 103 90 84 85 78 62 26 19 59 82 103 100 107 100 103 111 116 114 109 106 101 98 96 94 90 85 84 87 85 82 80 78 76 76 77 75 73 72 71 69 66 66
258 235 247 245 247 256 280 63 91 96 96 80 95 99 83 54 58 88 109 114 106 102 106 118 117 114 111 107 103 100 100 97 90 85 87 88 85 82 81 80 80 79 76 75 75 73 70 66 63
240 237 233 241 244 247 275 69 111 148 153 148 167 147 92 71 75 93 113 119 112 107 105 118 117 116 115 111 107 103 102 100 96 90 89 91 88 85 83 83 82 80 78 76 76 74 71 66 61
237 237 235 239 236 225 222 195 207 202 200 129 169 188 107 106 90 100 110 108 104 105 106 114 116 116 116 114 111 105 100 100 98 95 92 94 93 89 89 87 85 84 81 75 74 75 72 67 62
242 240 247 254 247 241 215 153 213 237 214 166 257 150 124 114 98 105 105 100 96 94 102 108 115 114 117 115 110 104 99 97 100 95 92 94 96 92 92 91 89 86 84 80 76 74 72 67 63
270 272 252 250 248 248 188 166 5 330 305 34 14 86 123 123 112 110 106 95 90 87 91 97 105 109 111 109 110 105 97 93 96 94 95 97 97 91 89 90 89 88 87 84 81 77 73 67 63
262 244 247 252 260 258 142 186 149 52 50 42 40 37 86 114 121 123 119 106 102 94 91 89 92 98 106 112 112 108 100 93 93 96 101 100 96 91 83 85 91 89 88 85 82 79 75 69 62
226 232 239 274 309 312 283 264 153 153 188 175 87 81 105 121 136 147 151 151 150 133 110 94 91 98 107 112 115 114 108 103 98 100 105 100 93 92 91 87 89 89 89 86 82 78 73 67 59
216 235 250 277 322 323 298 280 244 216 221 222 175 146 140 142 149 163 165 162 158 142 116 98 96 99 106 107 114 112 108 106 101 99 90 97 97 95 90 84 81 82 87 77 78 74 60 65 57
236 250 253 272 319 299 281 266 247 248 257 38 97 134 141 154 163 174 177 166 149 139 132 109 95 96 97 104 109 109 104 101 88 95 97 90 86 79 81 81 80 77 71 60 55 51 56 64 62
236 245 254 254 254 271 281 266 256 248 200 55 107 133 157 166 169 172 171 156 148 148 146 137 114 108 102 101 113 113 107 106 105 99 84 82 84 79 79 79 78 77 82 76 53 57 56 52 52
255 246 240 241 233 233 254 261 243 239 187 169 152 170 176 172 167 164 160 164 164 160 159 153 140 127 112 103 97 97 102 106 104 103 92 82 88 87 83 80 76 74 75 66 58 72 70 59 51
255 259 245 229 212 194 235 250 229 216 193 193 189 187 177 168 162 165 166 174 172 164 158 154 148 130 122 116 100 89 99 105 92 102 110 95 88 92 81 78 80 82 82 74 66 68 66 69 57
240 240 245 214 204 191 214 249 214 189 197 208 202 184 171 164 159 146 151 170 164 156 153 154 151 145 136 114 101 88 88 86 85 101 109 100 89 92 87 71 75 95 105 91 81 74 74 75 67
223 237 241 227 204 196 216 249 219 184 196 205 193 173 162 154 137 126 156 165 155 154 151 152 146 147 135 116 103 95 89 82 89 94 93 99 90 90 97 85 91 103 102 89 96 91 101 93 67
235 246 249 238 204 201 226 247 241 202 199 196 169 142 148 140 122 95 113 131 134 143 146 149 146 140 130 121 112 99 81 71 76 80 83 95 96 93 99 99 98 94 81 112 115 107 84 97 95
275 265 265 266 226 223 232 244 237 219 177 170 164 135 151 145 100 79 69 85 106 121 138 145 142 144 135 146 151 147 147 131 95 85 93 96 112 115 98 90 104 100 111 118 128 127 118 86 86
269 271 276 284 308 260 252 254 223 189 183 167 144 86 75 112 92 82 75 69 69 98 121 152 149 148 145 151 164 162 151 158 125 97 114 127 121 111 122 103 145 139 133 129 126 118 129 210 161
261 253 267 278 309 257 267 267 202 183 164 141 105 73 62 122 135 109 82 74 74 62 68 115 144 142 142 129 121 123 114 117 134 149 141 125 160 169 158 156 161 162 149 164 166 161 154 198 247
258 284 281 264 264 252 208 258 220 185 185 188 193 220 313 62 111 111 98 81 70 59 50 36 107 139 149 142 149 155 167 186 201 187 183 185 182 172 177 177 177 176 173 177 186 178 184 175 208
272 309 283 257 246 265 228 239 253 172 210 223 213 212 259 75 113 118 106 93 82 69 60 33 31 85 137 163 177 181 193 196 166 170 173 201 221 186 186 197 200 201 191 187 181 187 194 200 202
301 313 289 246 241 254 224 208 261 211 219 200 195 184 113 53 51 81 86 86 74 76 74 46 32 23 46 176 191 195 200 183 168 188 196 198 211 221 207 213 216 229 208 193 201 208 199 209 216
314 88 355 256 219 242 201 202 239 124 86 105 101 144 113 79 58 79 85 83 77 74 69 54 38 5 355 301 207 217 217 202 192 200 201 204 213 221 227 230 220 239 238 219 207 210 210 209 215
244 199 192 233 251 272 224 225 213 104 92 75 50 59 72 65 51 66 81 91 81 87 87 84 52 334 313 307 267 253 237 213 209 218 211 209 215 227 234 236 231 230 239 235 222 225 219 216 218
263 239 263 266 284 275 235 223 219 90 81 73 52 51 51 48 35 32 49 55 63 55 95 168 231 284 302 293 287 259 254 242 228 231 232 223 231 237 224 240 248 236 234 236 229 223 221 220 223
302 311 158 217 247 261 250 219 221 192 204 78 26 27 28 25 26 26 30 24 30 25 19 47 293 251 275 288 292 288 272 269 257 236 229 230 234 235 227 235 243 245 238 239 237 229 219 218 232
203 217 228 239 249 239 267 258 25 157 148 130 46 20 26 30 20 12 16 27 34 34 29 21 9 358 328 296 296 303 279 283 273 247 239 237 241 231 227 232 238 238 238 243 237 230 219 220 231
294 239 199 211 250 235 254 262 25 68 69 70 47 34 46 45 25 21 24 26 22 21 17 9 4 357 341 331 322 301 284 278 281 272 260 243 236 235 233 233 233 236 236 235 230 239 231 224 229
Height
1498 1499 1501 1503 1504 1504 1500 1493 1489 1491 1494 1497 1498 1498 1500 1504 1508 1517 1517 1515 1515 1516 1517 1519 1521 1523 1525 1526 1527 1529 1530 1531 1532 1533 1534 1535 1535 1536 1537 1537 1538 1539 1540 1540 1541 1542 1542 1543 1543
1498 1500 1502 1503 1504 1505 1498 1492 1492 1493 1496 1498 1499 1501 1502 1506 1510 1513 1513 1514 1515 1515 1517 1519 1521 1523 1525 1526 1527 1529 1530 1531 1532 1533 1534 1535 1536 1537 1537 1538 1539 1540 1541 1541 1542 1543 1543 1544 1545
1498 1500 1502 1500 1499 1500 1496 1491 1493 1495 1497 1499 1501 1503 1505 1509 1511 1512 1513 1514 1514 1516 1517 1519 1521 1523 1524 1526 1527 1529 1530 1531 1532 1534 1535 1535 1536 1537 1538 1539 1539 1540 1541 1542 1543 1543 1544 1545 1546
1499 1501 1501 1501 1498 1494 1492 1492 1493 1495 1498 1500 1502 1505 1507 1510 1511 1511 1512 1513 1514 1515 1517 1519 1521 1522 1524 1526 1527 1529 1530 1531 1532 1534 1535 1536 1537 1537 1538 1539 1540 1541 1542 1543 1543 1544 1545 1545 1546
1499 1500 1500 1499 1495 1492 1491 1492 1494 1496 1498 1501 1503 1505 1508 1510 1510 1511 1512 1513 1514 1515 1517 1519 1521 1522 1524 1525 1527 1528 1530 1531 1532 1534 1535 1536 1537 1538 1539 1540 1540 1541 1542 1543 1544 1545 1545 1546 1547
1499 1497 1500 1498 1493 1490 1491 1492 1494 1496 1498 1500 1503 1505 1508 1509 1509 1510 1511 1512 1514 1515 1517 1518 1520 1522 1523 1524 1526 1528 1529 1530 1532 1533 1534 1536 1537 1538 1539 1540 1541 1542 1542 1543 1544 1545 1546 1547 1548
1497 1496 1495 1492 1492 1490 1490 1492 1494 1496 1498 1500 1502 1504 1506 1508 1508 1510 1511 1512 1513 1515 1516 1518 1519 1521 1522 1524 1525 1527 1528 1530 1531 1533 1534 1535 1537 1538 1538 1540 1541 1541 1542 1543 1544 1545 1546 1547 1548
1494 1495 1492 1490 1490 1490 1490 1492 1495 1497 1499 1501 1502 1503 1505 1507 1507 1508 1510 1511 1513 1514 1515 1517 1518 1520 1521 1523 1524 1526 1527 1529 1530 1532 1533 1535 1536 1537 1538 1539 1540 1541 1542 1543 1544 1545 1546 1547 1548
1493 1496 1493 1490 1489 1490 1490 1492 1495 1497 1499 1500 1501 1503 1503 1504 1506 1507 1509 1510 1511 1513 1514 1515 1517 1518 1520 1522 1523 1525 1526 1528 1529 1531 1532 1534 1535 1536 1537 1538 1540 1541 1542 1543 1543 1544 1545 1546 1547
1492 1494 1490 1490 1489 1490 1491 1492 1494 1496 1498 1500 1501 1502 1503 1503 1504 1505 1506 1507 1509 1511 1512 1514 1515 1517 1519 1520 1522 1524 1525 1527 1528 1530 1531 1533 1534 1535 1537 1538 1539 1540 1541 1542 1543 1544 1545 1546 1547
1489 1489 1488 1490 1490 1490 1491 1493 1494 1495 1497 1498 1499 1500 1501 1502 1503 1504 1505 1506 1508 1509 1511 1512 1514 1515 1517 1519 1520 1522 1524 1525 1527 1529 1530 1531 1533 1534 1536 1537 1538 1539 1540 1541 1542 1543 1544 1545 1546
1488 1487 1488 1490 1490 1491 1492 1493 1494 1494 1496 1497 1497 1498 1499 1500 1501 1502 1503 1505 1506 1507 1509 1510 1512 1514 1516 1517 1519 1521 1522 1523 1525 1527 1529 1530 1532 1533 1534 1535 1536 1538 1539 1540 1541 1542 1543 1544 1545
1487 1487 1488 1489 1490 1491 1492 1492 1493 1493 1494 1495 1496 1497 1498 1498 1499 1501 1502 1503 1504 1505 1507 1508 1510 1512 1514 1515 1517 1519 1521 1522 1524 1525 1527 1528 1530 1532 1532 1534 1535 1536 1537 1539 1540 1541 1542 1543 1544
1485 1486 1487 1488 1489 1490 1491 1491 1492 1491 1492 1494 1495 1495 1496 1497 1497 1498 1499 1500 1502 1503 1504 1506 1508 1510 1511 1513 1515 1517 1519 1520 1522 1523 1525 1527 1528 1530 1531 1532 1533 1534 1535 1537 1538 1539 1540 1541 1542
1486 1486 1486 1485 1486 1488 1490 1490 1489 1489 1490 1492 1493 1494 1494 1495 1495 1496 1497 1498 1499 1500 1502 1503 1505 1507 1509 1511 1513 1515 1517 1518 1520 1522 1523 1525 1526 1528 1529 1530 1531 1532 1533 1535 1536 1537 1538 1540 1541
1484 1486 1487 1483 1484 1486 1491 1488 1485 1486 1488 1489 1490 1491 1492 1493 1493 1494 1495 1496 1497 1498 1499 1501 1503 1504 1506 1509 1511 1513 1515 1516 1518 1520 1521 1522 1524 1526 1527 1528 1529 1530 1531 1532 1534 1535 1536 1537 1539
1484 1485 1482 1483 1481 1483 1486 1484 1483 1484 1485 1486 1487 1489 1490 1491 1491 1492 1492 1493 1495 1496 1497 1498 1500 1502 1504 1506 1509 1510 1512 1514 1515 1517 1518 1520 1521 1523 1524 1526 1527 1528 1529 1530 1531 1532 1534 1535 1536
1484 1481 1479 1480 1479 1481 1483 1483 1482 1482 1483 1484 1486 1487 1488 1489 1489 1490 1490 1491 1492 1493 1495 1496 1498 1500 1502 1504 1506 1508 1509 1511 1513 1514 1516 1517 1519 1520 1522 1523 1524 1525 1526 1527 1528 1530 1531 1533 1534
1480 1479 1479 1478 1477 1480 1480 1481 1481 1482 1482 1483 1484 1485 1486 1487 1488 1488 1488 1489 1490 1491 1492 1493 1495 1497 1499 1501 1503 1504 1506 1508 1510 1512 1513 1515 1516 1517 1519 1520 1521 1522 1523 1525 1526 1527 1528 1530 1531
1480 1481 1479 1480 1479 1480 1479 1479 1479 1480 1481 1482 1483 1484 1485 1486 1486 1486 1487 1487 1488 1489 1490 1491 1493 1494 1496 1498 1500 1502 1504 1505 1507 1509 1510 1512 1513 1514 1516 1517 1518 1519 1520 1522 1523 1524 1525 1527 1529
1479 1481 1481 1482 1482 1480 1481 1481 1479 1479 1480 1481 1482 1484 1484 1484 1485 1485 1485 1485 1486 1487 1488 1489 1491 1492 1494 1496 1498 1500 1501 1503 1504 1506 1507 1509 1510 1511 1513 1514 1515 1516 1517 1518 1519 1521 1522 1524 1526
1481 1479 1480 1481 1486 1486 1481 1486 1478 1477 1479 1479 1481 1482 1482 1483 1483 1484 1484 1484 1484 1485 1486 1487 1489 1490 1492 1494 1495 1496 1497 1498 1500 1502 1504 1505 1507 1509 1510 1511 1512 1513 1514 1515 1516 1518 1519 1521 1522
1481 1480 1480 1481 1483 1486 1481 1486 1479 1475 1477 1478 1479 1480 1480 1481 1482 1482 1483 1483 1483 1484 1484 1485 1487 1488 1490 1491 1493 1494 1495 1496 1498 1499 1500 1502 1504 1505 1506 1508 1509 1509 1510 1511 1513 1514 1516 1517 1518
1481 1481 1480 1481 1484 1489 1479 1483 1479 1477 1475 1475 1476 1478 1478 1479 1480 1481 1481 1481 1482 1482 1483 1484 1485 1486 1488 1489 1490 1491 1492 1493 1495 1496 1497 1498 1500 1501 1503 1504 1505 1506 1506 1507 1509 1510 1512 1513 1514
1483 1486 1490 1488 1488 1483 1474 1479 1479 1475 1473 1474 1475 1476 1477 1478 1478 1479 1479 1480 1480 1480 1481 1482 1482 1483 1484 1486 1487 1488 1489 1491 1492 1493 1494 1495 1496 1497 1498 1499 1501 1502 1502 1503 1505 1506 1507 1509 1510
1484 1484 1490 1491 1483 1478 1478 1479 1478 1474 1474 1474 1475 1475 1476 1476 1477 1477 1478 1478 1479 1479 1480 1480 1480 1481 1482 1483 1484 1485 1486 1488 1489 1490 1491 1491 1492 1493 1495 1496 1496 1497 1498 1499 1500 1502 1503 1504 1505
1484 1485 1483 1488 1486 1486 1479 1476 1476 1474 1474 1475 1476 1476 1476 1476 1476 1477 1477 1477 1477 1477 1477 1478 1478 1478 1479 1480 1481 1482 1483 1484 1485 1486 1487 1488 1489 1490 1491 1491 1492 1493 1494 1495 1496 1497 1498 1499 1501
1486 1485 1489 1489 1488 1483 1473 1473 1476 1477 1476 1476 1476 1476 1476 1476 1476 1476 1476 1476 1476 1476 1476 1476 1476 1476 1476 1477 1478 1479 1480 1480 1481 1482 1483 1484 1484 1485 1486 1487 1488 1489 1489 1490 1491 1492 1494 1495 1496
1488 1488 1488 1487 1485 1484 1480 1478 1474 1473 1474 1476 1476 1476 1476 1476 1475 1475 1475 1475 1475 1474 1474 1474 1474 1474 1474 1474 1475 1476 1476 1477 1478 1478 1479 1479 1480 1481 1482 1482 1483 1484 1485 1486 1486 1487 1489 1490 1491
1487 1488 1489 1492 1488 1484 1483 1483 1476 1475 1475 1475 1476 1476 1476 1476 1475 1474 1474 1474 1473 1473 1472 1472 1472 1471 1472 1472 1472 1472 1473 1473 1474 1474 1475 1476 1476 1477 1477 1478 1478 1479 1480 1481 1482 1482 1483 1484 1485